Location: Portage (MI)
(42.2012°N, 85.5800°W)
Time: 15:41:21
(UTC-05:00)

Envisat - Visible Passes

Search period start: 20 January 2018 00:00
Search period end: 30 January 2018 00:00
Orbit: 764 x 766 km, 98.2° (Epoch: 20 January)

Date Brightness Start Highest point End Pass type
(mag) Time Alt. Az. Time Alt. Az. Time Alt. Az.
20 Jan 4.7 18:48:34 13° NE 18:48:34 13° NE 18:50:07 10° NNE visible
20 Jan 4.6 20:28:45 26° NNW 20:28:45 26° NNW 20:30:58 10° NNW visible
21 Jan 4.0 19:51:21 30° NNE 19:51:21 30° NNE 19:54:07 10° N visible
21 Jan 5.8 21:31:32 13° NW 21:31:32 13° NW 21:32:13 10° NW visible
22 Jan 4.2 19:13:56 22° NE 19:13:56 22° NE 19:16:44 10° NNE visible
22 Jan 4.9 20:54:07 24° NW 20:54:07 24° NW 20:56:22 10° NNW visible
23 Jan 4.8 18:36:31 11° ENE 18:36:32 11° ENE 18:38:05 10° NE visible
23 Jan 3.9 20:16:42 39° N 20:16:42 39° N 20:19:50 10° NNW visible
24 Jan 3.7 19:39:16 34° NE 19:39:16 34° NE 19:42:51 10° N visible
24 Jan 5.3 21:19:27 19° WNW 21:19:27 19° WNW 21:21:27 10° NW visible
25 Jan 4.3 19:01:50 19° ENE 19:01:50 19° ENE 19:05:16 10° NNE visible
25 Jan 4.1 20:42:01 38° NW 20:42:01 38° NW 20:45:21 10° NNW visible
26 Jan 3.2 20:04:34 54° NNE 20:04:34 54° NNE 20:08:40 10° N visible
26 Jan 5.8 21:44:45 13° WNW 21:44:45 13° WNW 21:45:52 10° WNW visible
27 Jan 3.7 19:27:07 31° ENE 19:27:07 31° ENE 19:31:32 10° N visible
27 Jan 4.8 21:07:19 28° WNW 21:07:19 28° WNW 21:10:35 10° NNW visible
28 Jan 4.5 18:49:39 15° ENE 18:50:46 15° ENE 18:53:41 10° NNE visible
28 Jan 3.3 20:29:50 62° NW 20:29:50 62° NW 20:34:17 10° NNW visible
29 Jan 3.0 19:52:22 53° E 19:52:32 53° ENE 19:57:28 10° N visible
29 Jan 5.5 21:32:33 18° W 21:32:33 18° W 21:35:21 10° NW visible
